Regional Weather Roundup
Issued by NWS

Home | Current Version | Previous Version | Graphics & Text | Print | Product List | Glossary On
Versions: 1 2 3 4 5 6 7 8 9 10 11 12 13 14 15 16 17 18 19 20 21 22 23 24 25 26 27 28 29 30 31 32 33 34 35 36 37 38 39 40 41 42 43 44 45 46 47 48 49 50
000
ASUS43 KIND 232059
RWRIN

WEATHER ROUNDUP FOR INDIANA
NATIONAL WEATHER SERVICE INDIANAPOLIS IN
500 PM EDT TUE AUG 23 2016

NOTE: "FAIR" INDICATES FEW OR NO CLOUDS BELOW 12,000 FEET WITH NO
SIGNIFICANT WEATHER AND/OR OBSTRUCTIONS TO VISIBILITY.

* - STATION DOES NOT REPORT WEATHER SUCH AS PRECIPITATION OR FOG.

+ - STATION NOT QUALITY CONTROLLED BY THE NATIONAL WEATHER SERVICE.
    USE DATA WITH CAUTION...ESPECIALLY DEWPOINT AND RELATIVE
    HUMIDITY OBSERVATIONS.

INZ001>003-010>013-019-020-232200-
NORTHWEST INDIANA

CITY           SKY/WX    TMP DP  RH WIND       PRES   REMARKS
KNOX *+        MOSUNNY   79  32  18 SW12      30.18F
MONTICELLO +   MOSUNNY   80  55  42 S7        30.19S
RENSSELAER +   MOSUNNY   79  61  53 SE12      30.18F

$$

LMZ046-743>745-232200-
SOUTHERN LAKE MICHIGAN

STATION/POSITION TIME  TEMP    WIND        PRES    WAVE
                       AIR SEA DIR/SP/G            HT
                 (UTC) (F)     (DEG/KT/KT) (MB)    (FT)
BURNS HARBOR     2004   79     190/ 11/ 21 1021.7F
MICHIGAN CITY    2000   77     160/ 10/ 13   N/A
5NW MICH CITY    2000   77 74  180/ 12/ 16   N/A     2

$$

INZ004-005-014>016-021>024-232200-
NORTH CENTRAL INDIANA

CITY           SKY/WX    TMP DP  RH WIND       PRES   REMARKS
ELKHART        PTSUNNY   79  59  50 SW12      30.20F
GOSHEN         MOSUNNY   79  58  48 S12       30.20F
PERU/GRISSOM   MOSUNNY   81  60  48 SW10      30.19F
SOUTH BEND     MOSUNNY   79  60  52 S14       30.19F

$$

INZ006>009-017-018-025>027-232200-
NORTHEAST INDIANA

CITY           SKY/WX    TMP DP  RH WIND       PRES   REMARKS
ANGOLA *+      MOSUNNY   81  61  50 S10       30.22S
FORT WAYNE     MOSUNNY   80  58  46 S8        30.22F

$$

INZ028-029-035-036-043>045-051>053-232200-
WEST CENTRAL INDIANA

CITY           SKY/WX    TMP DP  RH WIND       PRES   REMARKS
CRAWFORDSVL +  CLOUDY    78  64  61 SW7       30.20F
GREENCASTLE +  SUNNY     79  64  61 S7        30.21F
LAFAYETTE      SUNNY     79  60  52 SW9G17    30.18F
TERRE HAUTE    MOSUNNY   80  61  52 S9        30.20S

$$

INZ030>032-037>040-046>048-054>057-064-065-232200-
CENTRAL INDIANA

CITY           SKY/WX    TMP DP  RH WIND       PRES   REMARKS
COLUMBUS       SUNNY     81  63  54 S7        30.22F
INDIANAPOLIS   PTSUNNY   81  60  48 S12       30.20F
-EAGLE CREEK   MOSUNNY   80  59  48 S6        30.20F
KOKOMO *+      PTSUNNY   81  59  47 S12       30.21S
MT COMFORT *+  PTSUNNY   79  63  57 S8        30.23F
SHELBYVILLE    SUNNY     81  61  50 S9        30.21F

$$

INZ033-034-041-042-049-050-058-059-232200-
EAST CENTRAL INDIANA

CITY           SKY/WX    TMP DP  RH WIND       PRES   REMARKS
MUNCIE         SUNNY     80  59  48 SW9       30.22F

$$

INZ060-061-067>069-081>083-085>088-232200-
SOUTHWEST INDIANA

CITY           SKY/WX    TMP DP  RH WIND       PRES   REMARKS
EVANSVILLE     CLOUDY    81  63  54 S3        30.20F
HUNTINGBURG *+ PTSUNNY   81  63  54 S7        30.21F

$$

INZ062-063-066-070>080-084-089>092-232200-
SOUTH CENTRAL AND SOUTHEAST INDIANA

CITY           SKY/WX    TMP DP  RH WIND       PRES   REMARKS
BLOOMINGTON    CLOUDY    81  60  48 S9        30.21F
MADISON *+     MOSUNNY   82  59  44 S6        30.24F

$$





USA.gov is the U.S. government's official web portal to all federal, state and local government web resources and services.